Temp
-5 -5 -5 -5 -5 -5 -6 -6 -5 -5 -5 -5 -5 -5 -5 -6 -6 -6 -6 -6 -6 -5 -5 -5 -5 -5 -5 -5 -5 -5 -5 -6 -6 -5 -5 -5 -5 -5 -5 -5 -5 -5 -5 -5 -5 -5 -5 -5 -5 -5 -5 -5 -5 -5 -5 -5 -5 -5 -5 -6 -6 -6 -6
-6 -5 -5 -5 -5 -5 -5 -6 -6 -5 -5 -5 -5 -5 -5 -5 -6 -5 -6 -6 -6 -6 -5 -5 -5 -5 -5 -5 -5 -5 -5 -6 -6 -5 -5 -5 -5 -5 -5 -5 -5 -5 -5 -5 -5 -5 -5 -5 -5 -5 -5 -5 -5 -5 -5 -5 -5 -5 -5 -6 -5 -5 -6
-6 -6 -6 -6 -6 -6 -6 -6 -6 -6 -5 -5 -6 -5 -5 -5 -5 -5 -5 -6 -6 -6 -6 -5 -5 -5 -5 -5 -5 -5 -5 -5 -6 -5 -5 -5 -5 -5 -5 -5 -5 -5 -5 -5 -5 -5 -5 -5 -5 -5 -5 -5 -5 -5 -5 -5 -5 -5 -5 -5 -5 -5 -6
-7 -7 -6 -6 -6 -6 -6 -6 -6 -6 -6 -6 -6 -5 -5 -5 -5 -5 -5 -5 -5 -5 -5 -5 -5 -5 -5 -5 -5 -5 -5 -5 -5 -5 -5 -5 -5 -5 -5 -5 -5 -5 -5 -5 -5 -5 -5 -5 -5 -5 -5 -5 -4 -4 -4 -4 -5 -5 -5 -5 -5 -6 -6
-7 -7 -7 -6 -6 -6 -6 -6 -5 -5 -6 -6 -6 -6 -5 -5 -5 -5 -5 -5 -5 -5 -5 -5 -5 -5 -5 -5 -5 -5 -5 -5 -5 -5 -5 -5 -5 -5 -5 -5 -5 -5 -5 -5 -5 -5 -5 -5 -4 -4 -4 -4 -4 -4 -4 -4 -4 -4 -5 -5 -5 -5 -5
-7 -7 -7 -7 -6 -6 -5 -5 -5 -5 -6 -6 -6 -6 -5 -5 -5 -5 -5 -5 -5 -5 -5 -5 -5 -5 -5 -5 -5 -5 -5 -5 -5 -5 -5 -5 -5 -5 -5 -5 -5 -5 -5 -5 -5 -5 -5 -4 -4 -4 -4 -4 -4 -4 -4 -4 -4 -4 -4 -4 -5 -5 -5
-8 -7 -7 -7 -7 -6 -6 -6 -5 -6 -6 -5 -5 -5 -6 -5 -5 -5 -5 -5 -5 -5 -5 -5 -5 -5 -5 -5 -5 -5 -5 -5 -5 -5 -4 -4 -5 -5 -5 -5 -5 -5 -5 -5 -5 -5 -5 -5 -4 -4 -4 -4 -4 -4 -4 -4 -4 -4 -4 -4 -4 -5 -5
-8 -8 -8 -8 -7 -7 -7 -6 -6 -6 -6 -5 -5 -5 -5 -5 -6 -6 -5 -5 -5 -5 -5 -5 -5 -5 -5 -5 -4 -5 -5 -5 -5 -5 -4 -4 -4 -5 -5 -5 -5 -5 -5 -5 -5 -5 -5 -5 -4 -4 -4 -4 -4 -4 -4 -4 -4 -4 -4 -4 -4 -5 -5
-8 -8 -8 -8 -8 -7 -7 -7 -6 -6 -6 -6 -6 -5 -5 -5 -6 -6 -6 -6 -6 -5 -5 -5 -5 -5 -5 -5 -4 -5 -5 -5 -5 -5 -5 -4 -4 -4 -4 -4 -5 -5 -5 -5 -5 -5 -5 -4 -4 -4 -4 -4 -4 -4 -4 -4 -4 -4 -4 -4 -4 -5 -5
-8 -8 -8 -8 -8 -8 -7 -7 -7 -7 -6 -6 -6 -6 -6 -6 -6 -6 -6 -6 -6 -6 -5 -5 -5 -5 -5 -5 -5 -4 -4 -5 -5 -5 -5 -5 -5 -4 -4 -4 -4 -4 -5 -5 -5 -5 -4 -4 -4 -4 -4 -4 -4 -4 -4 -4 -4 -4 -4 -4 -4 -4 -5
-8 -8 -8 -8 -8 -8 -8 -7 -7 -7 -6 -6 -6 -6 -6 -6 -6 -6 -6 -6 -6 -6 -5 -5 -5 -5 -5 -5 -5 -4 -4 -4 -5 -5 -5 -5 -5 -5 -5 -5 -4 -4 -5 -5 -5 -5 -4 -4 -4 -4 -4 -4 -4 -4 -4 -4 -4 -4 -4 -4 -4 -4 -4
-8 -8 -8 -8 -8 -8 -8 -8 -7 -7 -7 -6 -6 -6 -6 -6 -6 -6 -6 -6 -6 -6 -5 -5 -5 -5 -5 -5 -5 -4 -4 -4 -4 -5 -5 -5 -5 -5 -5 -5 -4 -4 -4 -4 -4 -5 -4 -4 -4 -4 -4 -4 -3 -3 -3 -3 -3 -3 -3 -4 -4 -4 -4
-8 -8 -8 -8 -8 -8 -8 -8 -7 -7 -7 -7 -7 -6 -6 -6 -6 -6 -6 -6 -6 -6 -6 -5 -5 -5 -5 -5 -5 -5 -4 -4 -4 -4 -4 -5 -5 -5 -5 -5 -5 -4 -4 -4 -4 -4 -5 -4 -4 -4 -4 -3 -3 -3 -3 -3 -3 -3 -3 -3 -4 -4 -4
-8 -8 -8 -8 -8 -8 -8 -8 -8 -7 -7 -7 -7 -7 -6 -6 -6 -6 -5 -5 -5 -6 -6 -6 -5 -5 -5 -5 -5 -5 -5 -4 -4 -4 -4 -4 -4 -4 -5 -4 -4 -4 -4 -4 -4 -4 -4 -4 -4 -4 -4 -4 -3 -3 -3 -3 -3 -3 -3 -3 -3 -3 -4
-8 -8 -8 -8 -8 -8 -8 -8 -8 -8 -8 -7 -7 -7 -7 -7 -6 -5 -5 -5 -6 -6 -6 -6 -6 -6 -6 -6 -5 -5 -5 -5 -5 -4 -4 -4 -4 -4 -4 -4 -4 -4 -4 -4 -4 -4 -4 -4 -4 -4 -4 -4 -4 -3 -3 -3 -3 -3 -4 -3 -3 -3 -3
-8 -8 -8 -8 -8 -9 -8 -8 -8 -8 -8 -8 -8 -7 -7 -7 -7 -6 -6 -6 -6 -6 -6 -6 -6 -6 -6 -6 -6 -5 -5 -5 -5 -5 -5 -4 -4 -4 -4 -4 -4 -4 -4 -4 -4 -4 -4 -4 -4 -4 -4 -4 -4 -4 -3 -3 -3 -4 -4 -4 -3 -3 -3
-8 -8 -8 -8 -8 -8 -8 -8 -8 -8 -8 -8 -8 -8 -8 -8 -8 -7 -7 -6 -6 -6 -6 -6 -6 -6 -6 -5 -5 -5 -5 -5 -5 -5 -5 -5 -4 -4 -4 -4 -4 -4 -4 -4 -4 -4 -4 -4 -4 -4 -4 -4 -4 -4 -4 -4 -4 -4 -4 -4 -4 -4 -3
-9 -8 -8 -8 -8 -8 -8 -8 -8 -8 -8 -8 -8 -8 -8 -8 -8 -8 -8 -7 -6 -6 -6 -6 -6 -6 -6 -6 -5 -5 -5 -5 -5 -5 -5 -5 -5 -5 -4 -4 -4 -4 -4 -4 -4 -4 -4 -4 -4 -4 -4 -4 -4 -4 -4 -4 -4 -4 -4 -4 -4 -4 -4
-9 -9 -8 -8 -8 -8 -8 -8 -8 -8 -8 -8 -8 -8 -8 -8 -8 -8 -8 -8 -7 -6 -6 -6 -6 -6 -6 -6 -6 -5 -5 -5 -5 -5 -5 -5 -5 -5 -5 -4 -4 -4 -4 -4 -4 -4 -4 -4 -4 -4 -5 -5 -4 -4 -4 -4 -4 -4 -5 -5 -4 -4 -4
-9 -9 -9 -8 -8 -8 -9 -9 -8 -8 -8 -8 -8 -8 -8 -8 -8 -8 -8 -8 -7 -7 -7 -7 -7 -6 -6 -6 -6 -6 -6 -5 -5 -5 -5 -5 -5 -5 -5 -5 -5 -5 -5 -4 -4 -4 -4 -4 -4 -4 -5 -5 -5 -5 -5 -5 -5 -5 -5 -5 -5 -4 -4
-9 -9 -9 -9 -9 -9 -9 -9 -8 -8 -8 -8 -8 -8 -8 -8 -8 -8 -7 -7 -8 -8 -8 -7 -7 -6 -6 -6 -6 -7 -7 -6 -6 -6 -5 -5 -5 -5 -5 -5 -5 -5 -5 -5 -5 -5 -5 -4 -4 -4 -5 -5 -5 -5 -5 -5 -5 -5 -5 -5 -5 -5 -5
-9 -9 -9 -9 -9 -9 -9 -8 -8 -8 -8 -8 -8 -8 -8 -8 -8 -8 -8 -7 -8 -8 -8 -8 -7 -7 -7 -7 -7 -7 -7 -7 -7 -6 -6 -6 -6 -5 -5 -5 -5 -4 -4 -5 -5 -5 -5 -5 -4 -4 -5 -5 -5 -5 -5 -5 -5 -5 -5 -5 -5 -5 -5
-9 -9 -9 -9 -9 -9 -9 -8 -8 -8 -8 -8 -8 -8 -8 -8 -8 -8 -8 -8 -7 -8 -8 -8 -7 -7 -7 -7 -7 -7 -7 -7 -7 -7 -6 -6 -6 -6 -6 -6 -6 -5 -4 -4 -5 -5 -5 -5 -5 -5 -5 -5 -5 -5 -5 -5 -5 -5 -5 -5 -5 -5 -5
-9 -9 -9 -9 -9 -9 -9 -9 -9 -8 -8 -8 -8 -8 -8 -8 -8 -8 -8 -8 -8 -8 -8 -8 -7 -7 -7 -7 -7 -6 -6 -7 -7 -7 -6 -6 -6 -6 -6 -6 -6 -6 -5 -5 -5 -5 -5 -5 -5 -5 -5 -5 -5 -5 -5 -5 -5 -5 -5 -5 -5 -5 -5
-9 -9 -9 -9 -9 -9 -9 -9 -9 -9 -9 -8 -8 -8 -8 -8 -8 -8 -8 -8 -8 -8 -8 -8 -8 -7 -7 -7 -7 -7 -7 -7 -7 -7 -7 -6 -6 -6 -6 -6 -6 -6 -6 -6 -5 -5 -5 -5 -5 -5 -5 -5 -5 -5 -5 -5 -5 -5 -5 -5 -5 -5 -5
-10 -10 -9 -9 -9 -9 -9 -9 -9 -9 -9 -9 -9 -8 -8 -8 -8 -8 -8 -8 -8 -8 -8 -8 -8 -8 -7 -7 -7 -7 -7 -7 -7 -7 -6 -6 -6 -7 -6 -6 -6 -6 -7 -7 -6 -5 -5 -5 -5 -5 -5 -5 -5 -5 -5 -5 -5 -5 -5 -5 -5 -5 -5
-10 -10 -10 -9 -9 -9 -9 -9 -9 -9 -9 -9 -9 -9 -8 -8 -8 -8 -8 -8 -8 -8 -8 -8 -8 -7 -7 -7 -7 -7 -7 -7 -7 -7 -6 -6 -6 -6 -6 -6 -6 -6 -6 -7 -6 -6 -6 -5 -5 -5 -5 -5 -5 -5 -5 -5 -5 -5 -5 -5 -5 -5 -5
-11 -11 -10 -10 -9 -9 -9 -9 -9 -9 -9 -9 -9 -9 -9 -9 -8 -8 -8 -8 -8 -8 -8 -8 -7 -7 -7 -7 -7 -7 -7 -7 -7 -7 -7 -6 -6 -6 -6 -6 -6 -6 -6 -6 -6 -6 -6 -6 -6 -5 -5 -5 -5 -5 -5 -5 -5 -5 -5 -5 -5 -5 -5
-11 -11 -11 -10 -10 -9 -9 -9 -9 -9 -9 -9 -9 -9 -9 -9 -9 -8 -8 -8 -8 -8 -8 -8 -8 -8 -8 -8 -8 -7 -7 -7 -7 -7 -7 -7 -6 -6 -6 -6 -6 -6 -6 -6 -6 -6 -6 -6 -6 -6 -6 -6 -6 -5 -5 -5 -5 -5 -5 -5 -5 -5 -5
-11 -11 -11 -11 -10 -10 -10 -10 -9 -9 -9 -9 -9 -9 -9 -9 -9 -9 -8 -8 -8 -8 -8 -8 -8 -8 -8 -8 -8 -8 -7 -7 -7 -7 -6 -6 -6 -6 -6 -6 -6 -6 -6 -6 -6 -6 -6 -6 -6 -6 -6 -6 -6 -6 -6 -6 -6 -5 -5 -5 -5 -5 -5
-12 -11 -11 -11 -11 -10 -10 -10 -10 -10 -9 -9 -9 -9 -9 -9 -9 -9 -9 -8 -8 -8 -8 -8 -8 -8 -8 -8 -8 -8 -8 -7 -7 -7 -7 -6 -7 -6 -6 -6 -7 -6 -6 -6 -7 -6 -6 -6 -6 -6 -6 -6 -6 -6 -6 -6 -6 -6 -5 -5 -5 -5 -5
-12 -12 -12 -11 -11 -11 -11 -10 -10 -10 -10 -9 -9 -9 -9 -9 -9 -9 -9 -9 -8 -8 -8 -8 -9 -9 -8 -8 -8 -8 -8 -7 -7 -7 -7 -7 -7 -7 -7 -7 -7 -6 -6 -7 -7 -6 -6 -6 -6 -6 -6 -6 -6 -6 -6 -6 -6 -6 -6 -5 -5 -5 -6
-12 -12 -12 -12 -11 -11 -11 -11 -10 -10 -10 -10 -10 -9 -9 -9 -9 -9 -9 -9 -9 -9 -8 -8 -9 -9 -9 -9 -8 -8 -8 -8 -8 -8 -8 -8 -8 -8 -7 -7 -7 -6 -6 -7 -7 -6 -6 -6 -6 -6 -6 -6 -6 -6 -6 -6 -6 -5 -5 -5 -5 -6 -6
-13 -13 -12 -12 -12 -12 -11 -11 -11 -10 -10 -10 -10 -10 -9 -9 -9 -9 -9 -9 -9 -9 -9 -9 -9 -9 -9 -9 -9 -9 -8 -8 -8 -8 -8 -8 -8 -8 -8 -7 -7 -7 -7 -7 -7 -7 -6 -6 -6 -6 -6 -6 -6 -6 -6 -6 -5 -5 -5 -5 -6 -6 -6
-13 -13 -13 -13 -12 -12 -12 -11 -11 -11 -11 -10 -10 -10 -10 -10 -9 -9 -9 -9 -9 -9 -9 -9 -9 -9 -9 -9 -9 -9 -9 -8 -8 -8 -8 -8 -8 -8 -8 -8 -8 -8 -8 -8 -7 -7 -7 -6 -6 -6 -6 -6 -6 -6 -6 -6 -6 -6 -6 -6 -6 -6 -6
-14 -14 -14 -13 -13 -13 -12 -12 -11 -11 -11 -11 -11 -10 -10 -10 -10 -10 -9 -9 -9 -9 -9 -9 -9 -9 -9 -9 -9 -9 -9 -9 -8 -8 -8 -8 -8 -8 -8 -8 -8 -8 -8 -8 -8 -8 -7 -7 -6 -6 -6 -6 -7 -7 -6 -6 -6 -6 -6 -6 -7 -6 -6
-15 -14 -14 -14 -14 -13 -13 -12 -12 -11 -11 -11 -11 -11 -10 -10 -10 -10 -10 -10 -9 -9 -9 -9 -9 -9 -9 -9 -9 -9 -9 -9 -9 -8 -8 -8 -8 -8 -8 -8 -8 -8 -8 -8 -8 -8 -8 -7 -7 -7 -6 -6 -6 -7 -7 -7 -7 -7 -6 -6 -7 -7 -6
-15 -15 -15 -15 -14 -14 -14 -13 -13 -12 -12 -11 -11 -11 -11 -10 -10 -10 -10 -10 -10 -10 -9 -9 -9 -9 -9 -9 -9 -9 -9 -9 -9 -9 -9 -8 -8 -8 -8 -8 -8 -8 -8 -8 -8 -8 -8 -8 -8 -7 -7 -6 -6 -7 -7 -7 -7 -7 -7 -7 -7 -7 -7
Height
5894 5895 5899 5902 5904 5906 5907 5907 5909 5910 5911 5912 5915 5916 5917 5917 5918 5919 5921 5922 5923 5924 5926 5927 5930 5932 5934 5935 5937 5939 5941 5942 5943 5945 5947 5948 5949 5950 5951 5952 5953 5953 5955 5956 5957 5958 5958 5959 5960 5961 5961 5962 5963 5963 5964 5965 5965 5966 5966 5967 5967 5968 5968
5890 5890 5894 5896 5897 5900 5903 5905 5907 5909 5910 5912 5913 5915 5915 5916 5917 5918 5919 5920 5921 5923 5924 5926 5928 5930 5932 5933 5936 5938 5939 5941 5942 5943 5945 5947 5948 5949 5950 5951 5952 5953 5954 5955 5957 5957 5958 5959 5959 5960 5961 5962 5962 5963 5964 5964 5965 5965 5966 5967 5968 5968 5968
5889 5890 5892 5894 5894 5896 5900 5904 5907 5907 5908 5910 5911 5913 5914 5915 5916 5917 5917 5918 5919 5921 5922 5924 5926 5928 5930 5932 5934 5936 5938 5939 5941 5942 5944 5945 5947 5948 5949 5950 5951 5953 5954 5955 5956 5957 5958 5958 5959 5960 5960 5961 5962 5963 5963 5964 5965 5965 5966 5967 5968 5968 5968
5889 5890 5892 5894 5895 5896 5898 5902 5904 5904 5906 5907 5910 5912 5912 5913 5914 5915 5916 5917 5918 5920 5921 5923 5924 5926 5928 5930 5933 5934 5936 5938 5939 5940 5942 5944 5946 5947 5948 5949 5950 5952 5953 5954 5955 5956 5957 5958 5959 5959 5960 5961 5961 5962 5963 5964 5964 5965 5966 5967 5968 5968 5968
5889 5890 5890 5892 5894 5895 5897 5900 5902 5903 5904 5906 5909 5911 5911 5912 5913 5914 5915 5916 5917 5918 5920 5922 5923 5925 5927 5929 5931 5933 5935 5936 5937 5938 5940 5942 5944 5946 5947 5948 5949 5951 5952 5953 5954 5955 5957 5958 5958 5959 5959 5960 5961 5962 5962 5963 5964 5965 5966 5966 5967 5967 5968
5888 5889 5890 5891 5891 5892 5894 5897 5899 5901 5902 5904 5906 5908 5908 5910 5912 5913 5914 5916 5917 5918 5920 5922 5923 5925 5926 5928 5929 5931 5933 5934 5935 5937 5939 5940 5942 5944 5945 5947 5948 5949 5951 5952 5954 5955 5956 5957 5958 5958 5959 5959 5960 5961 5962 5962 5963 5964 5965 5966 5966 5967 5967
5887 5888 5889 5889 5890 5890 5891 5891 5892 5896 5899 5900 5901 5904 5906 5908 5910 5912 5913 5915 5916 5917 5918 5920 5922 5924 5925 5927 5929 5930 5932 5933 5934 5935 5937 5939 5940 5942 5944 5946 5947 5948 5950 5951 5953 5954 5955 5956 5957 5958 5958 5959 5960 5960 5961 5961 5962 5963 5964 5965 5966 5966 5967
5886 5887 5888 5888 5889 5890 5891 5889 5889 5894 5897 5896 5898 5902 5904 5906 5909 5911 5912 5914 5915 5915 5916 5917 5920 5922 5924 5926 5928 5930 5931 5932 5933 5934 5936 5937 5939 5940 5942 5944 5945 5947 5949 5950 5951 5952 5954 5955 5956 5957 5958 5958 5959 5959 5960 5960 5961 5962 5963 5964 5965 5966 5966
5884 5885 5887 5888 5888 5889 5890 5890 5891 5894 5895 5894 5895 5898 5901 5903 5906 5908 5910 5913 5914 5913 5912 5914 5917 5920 5922 5924 5926 5928 5929 5931 5932 5934 5935 5936 5937 5939 5940 5942 5943 5945 5947 5948 5949 5950 5952 5953 5955 5956 5957 5957 5958 5958 5959 5959 5960 5961 5962 5963 5964 5965 5966
5882 5883 5885 5886 5887 5888 5888 5889 5891 5893 5894 5893 5892 5894 5898 5901 5903 5905 5908 5911 5911 5910 5910 5911 5913 5917 5919 5921 5923 5925 5927 5929 5931 5932 5934 5935 5937 5938 5939 5940 5942 5943 5945 5946 5947 5949 5950 5951 5953 5954 5955 5956 5957 5957 5958 5959 5959 5960 5962 5963 5963 5964 5965
5880 5881 5883 5884 5885 5886 5887 5888 5889 5890 5892 5893 5892 5894 5897 5899 5901 5902 5906 5908 5909 5908 5908 5907 5909 5913 5916 5918 5921 5922 5924 5927 5929 5931 5932 5934 5935 5937 5938 5939 5940 5941 5943 5944 5945 5947 5948 5949 5951 5952 5953 5954 5955 5956 5957 5958 5959 5960 5961 5962 5963 5964 5964
5877 5879 5880 5882 5883 5885 5885 5886 5888 5889 5889 5891 5892 5894 5896 5898 5899 5901 5903 5905 5905 5906 5908 5908 5910 5913 5915 5916 5918 5920 5923 5924 5926 5928 5930 5932 5934 5935 5936 5938 5938 5940 5941 5942 5944 5945 5946 5947 5949 5951 5952 5953 5954 5955 5956 5957 5958 5959 5960 5961 5962 5963 5964
5874 5876 5877 5879 5881 5882 5883 5884 5886 5887 5888 5889 5890 5892 5894 5896 5898 5899 5900 5901 5902 5906 5909 5909 5908 5910 5912 5914 5916 5918 5920 5922 5924 5926 5927 5929 5931 5933 5934 5936 5937 5938 5939 5941 5942 5944 5945 5946 5947 5949 5950 5951 5953 5954 5955 5956 5957 5958 5959 5960 5961 5962 5962
5870 5872 5874 5876 5878 5879 5881 5882 5883 5885 5886 5887 5888 5890 5891 5893 5895 5896 5896 5897 5900 5904 5907 5907 5906 5908 5910 5912 5915 5917 5919 5920 5921 5923 5925 5927 5929 5930 5932 5934 5935 5937 5938 5939 5941 5942 5943 5944 5946 5947 5949 5950 5951 5953 5954 5955 5955 5956 5957 5958 5960 5960 5961
5866 5868 5870 5873 5875 5876 5878 5879 5881 5883 5884 5885 5886 5888 5889 5890 5891 5891 5891 5892 5896 5901 5904 5904 5905 5907 5908 5911 5914 5916 5917 5918 5920 5921 5923 5924 5926 5928 5930 5932 5933 5935 5936 5937 5939 5940 5941 5943 5944 5946 5947 5948 5950 5951 5952 5953 5954 5955 5956 5957 5958 5959 5960
5863 5865 5867 5869 5871 5873 5875 5876 5878 5880 5881 5883 5884 5885 5887 5888 5889 5889 5888 5888 5891 5897 5901 5901 5902 5903 5904 5907 5910 5912 5914 5916 5918 5919 5921 5922 5924 5926 5927 5929 5930 5932 5934 5935 5937 5938 5939 5941 5942 5944 5945 5947 5948 5949 5950 5951 5952 5953 5954 5954 5955 5957 5958
5859 5861 5864 5866 5868 5870 5872 5873 5875 5877 5878 5880 5882 5883 5884 5886 5887 5887 5887 5886 5888 5892 5897 5898 5899 5900 5901 5903 5905 5907 5910 5913 5914 5916 5918 5919 5921 5922 5924 5925 5927 5929 5931 5933 5935 5936 5938 5939 5940 5942 5943 5945 5946 5947 5948 5949 5950 5951 5952 5952 5953 5954 5956
5856 5858 5860 5862 5864 5866 5868 5870 5872 5874 5875 5877 5879 5880 5882 5883 5884 5884 5885 5885 5885 5888 5892 5896 5898 5899 5900 5901 5901 5902 5904 5907 5909 5912 5914 5916 5917 5918 5920 5922 5923 5926 5928 5930 5932 5933 5935 5937 5938 5940 5941 5943 5944 5946 5947 5948 5949 5950 5950 5950 5951 5952 5954
5852 5854 5856 5858 5860 5863 5865 5867 5868 5870 5872 5874 5875 5877 5879 5880 5881 5882 5882 5883 5883 5884 5888 5893 5895 5897 5899 5899 5899 5899 5900 5901 5903 5906 5909 5911 5912 5914 5916 5917 5919 5922 5924 5926 5928 5930 5932 5934 5936 5938 5939 5941 5943 5945 5946 5947 5948 5949 5950 5949 5950 5951 5952
5847 5849 5852 5854 5856 5859 5861 5863 5865 5866 5868 5870 5872 5874 5876 5877 5878 5879 5880 5880 5881 5881 5884 5888 5891 5893 5895 5895 5896 5898 5899 5899 5899 5901 5903 5905 5906 5909 5911 5913 5915 5918 5920 5922 5924 5926 5929 5932 5933 5935 5937 5938 5940 5942 5943 5944 5946 5948 5949 5948 5949 5949 5950
5842 5844 5847 5849 5851 5854 5856 5858 5860 5862 5864 5866 5868 5869 5871 5873 5875 5876 5877 5877 5878 5878 5880 5884 5886 5888 5890 5891 5892 5895 5897 5897 5898 5899 5900 5901 5903 5905 5907 5909 5911 5913 5915 5917 5919 5922 5925 5927 5929 5931 5933 5935 5937 5938 5940 5941 5942 5945 5946 5946 5946 5947 5949
5836 5839 5842 5844 5846 5849 5851 5854 5856 5858 5860 5862 5864 5865 5867 5869 5871 5872 5874 5875 5875 5876 5877 5880 5882 5884 5885 5887 5889 5891 5893 5894 5895 5896 5897 5898 5901 5903 5904 5906 5907 5908 5910 5912 5914 5917 5919 5922 5924 5926 5929 5931 5933 5935 5937 5938 5939 5940 5942 5942 5943 5943 5946
5831 5834 5837 5839 5841 5843 5846 5849 5851 5853 5855 5857 5859 5861 5862 5864 5866 5868 5870 5871 5872 5873 5874 5875 5877 5879 5880 5882 5885 5887 5888 5890 5892 5892 5894 5896 5898 5901 5903 5904 5906 5906 5907 5908 5910 5912 5915 5917 5919 5921 5924 5926 5928 5931 5933 5934 5936 5937 5938 5938 5938 5939 5941
5826 5829 5831 5834 5837 5839 5841 5843 5845 5848 5850 5852 5854 5856 5858 5859 5861 5863 5865 5867 5868 5869 5870 5872 5873 5875 5877 5878 5880 5882 5885 5888 5889 5888 5889 5892 5895 5898 5901 5903 5905 5905 5905 5905 5906 5907 5910 5912 5914 5916 5919 5922 5924 5926 5928 5930 5931 5933 5934 5935 5935 5935 5937
5820 5823 5826 5828 5831 5834 5836 5838 5840 5843 5845 5847 5849 5851 5853 5854 5856 5858 5860 5863 5864 5866 5867 5868 5869 5871 5873 5874 5876 5878 5882 5885 5885 5885 5886 5888 5890 5893 5896 5898 5900 5900 5901 5902 5903 5904 5905 5907 5910 5912 5914 5917 5919 5921 5923 5925 5926 5928 5930 5931 5931 5932 5933
5815 5818 5820 5822 5825 5828 5830 5832 5835 5837 5839 5842 5843 5845 5848 5849 5851 5853 5855 5857 5859 5861 5863 5864 5865 5867 5869 5870 5872 5875 5878 5880 5880 5881 5883 5885 5886 5889 5890 5892 5893 5894 5895 5897 5900 5901 5901 5902 5904 5907 5909 5912 5914 5916 5919 5920 5921 5923 5925 5926 5926 5927 5929
5809 5811 5813 5816 5819 5821 5823 5826 5829 5831 5834 5836 5838 5840 5842 5844 5846 5848 5850 5852 5854 5856 5858 5860 5861 5863 5864 5866 5868 5870 5873 5875 5875 5877 5879 5881 5883 5884 5885 5886 5888 5889 5890 5893 5896 5898 5898 5898 5900 5902 5904 5906 5909 5911 5913 5915 5916 5918 5919 5921 5922 5922 5924
5803 5805 5807 5810 5812 5814 5817 5820 5823 5825 5828 5830 5832 5834 5837 5839 5841 5842 5845 5847 5849 5850 5853 5854 5856 5858 5860 5861 5863 5865 5868 5870 5871 5873 5875 5876 5878 5879 5880 5882 5884 5886 5887 5890 5893 5895 5896 5896 5896 5897 5899 5901 5904 5906 5908 5910 5911 5912 5914 5916 5917 5918 5919
5797 5799 5801 5803 5805 5808 5811 5813 5816 5819 5822 5824 5827 5829 5831 5833 5835 5837 5839 5842 5843 5845 5847 5849 5851 5853 5855 5857 5858 5859 5862 5865 5867 5868 5870 5871 5873 5875 5876 5877 5880 5882 5883 5885 5888 5890 5891 5892 5892 5893 5895 5897 5899 5901 5903 5905 5906 5907 5909 5911 5913 5914 5915
5790 5792 5794 5796 5799 5802 5805 5807 5809 5812 5815 5818 5821 5823 5825 5827 5829 5831 5834 5836 5838 5840 5842 5844 5846 5848 5850 5852 5854 5855 5857 5860 5862 5864 5866 5867 5868 5869 5870 5872 5874 5877 5878 5879 5882 5884 5885 5886 5887 5889 5891 5894 5895 5897 5899 5900 5901 5903 5905 5907 5908 5909 5910
5785 5786 5788 5790 5793 5796 5798 5800 5802 5805 5807 5810 5814 5816 5819 5821 5823 5825 5828 5830 5832 5834 5836 5838 5840 5842 5844 5846 5848 5850 5852 5855 5857 5859 5862 5863 5863 5864 5865 5866 5869 5871 5873 5875 5878 5879 5880 5881 5882 5884 5887 5889 5891 5893 5894 5895 5897 5898 5900 5901 5902 5903 5905
5779 5780 5782 5783 5786 5789 5791 5793 5795 5798 5800 5803 5806 5809 5812 5814 5817 5819 5821 5823 5826 5828 5830 5832 5835 5836 5838 5840 5842 5845 5847 5849 5852 5854 5855 5856 5857 5859 5861 5862 5865 5867 5869 5871 5873 5875 5875 5876 5877 5879 5882 5884 5886 5888 5889 5890 5892 5893 5894 5894 5895 5897 5899
5771 5773 5775 5777 5779 5782 5784 5786 5788 5791 5793 5796 5799 5801 5804 5807 5810 5812 5814 5816 5819 5821 5824 5826 5828 5830 5833 5835 5836 5838 5841 5843 5845 5848 5849 5849 5851 5854 5856 5858 5860 5862 5863 5865 5868 5869 5871 5872 5873 5875 5877 5879 5880 5882 5884 5885 5887 5887 5886 5887 5889 5891 5892
5763 5766 5768 5770 5773 5775 5778 5780 5781 5783 5785 5788 5791 5793 5796 5799 5802 5805 5808 5810 5812 5814 5817 5819 5821 5824 5826 5828 5830 5832 5834 5837 5839 5842 5844 5845 5846 5848 5851 5853 5855 5856 5858 5860 5862 5864 5866 5868 5869 5871 5872 5874 5875 5877 5879 5880 5880 5880 5880 5883 5886 5887 5887
5756 5758 5760 5762 5764 5767 5769 5772 5774 5776 5778 5780 5782 5785 5788 5791 5794 5797 5800 5803 5805 5807 5809 5812 5814 5817 5819 5821 5824 5826 5828 5830 5832 5835 5837 5839 5841 5843 5846 5847 5849 5851 5853 5855 5857 5858 5860 5862 5865 5866 5867 5869 5871 5873 5873 5873 5873 5875 5877 5880 5882 5883 5883
5749 5751 5752 5754 5756 5758 5760 5763 5766 5769 5770 5772 5774 5777 5780 5783 5786 5789 5792 5795 5797 5799 5802 5804 5807 5809 5811 5814 5816 5819 5821 5823 5825 5828 5830 5833 5835 5837 5839 5842 5843 5846 5848 5850 5852 5853 5854 5857 5859 5860 5862 5864 5866 5867 5867 5868 5869 5872 5874 5875 5875 5876 5877
5743 5744 5745 5746 5747 5749 5752 5754 5757 5760 5763 5765 5767 5769 5772 5775 5778 5780 5783 5786 5789 5791 5794 5796 5799 5801 5804 5806 5808 5811 5814 5816 5818 5821 5823 5826 5828 5830 5833 5835 5838 5840 5842 5844 5846 5848 5849 5852 5854 5855 5856 5859 5861 5862 5862 5863 5865 5867 5869 5869 5870 5870 5871
5737 5738 5738 5739 5740 5742 5744 5745 5748 5750 5753 5756 5758 5761 5763 5766 5769 5771 5773 5776 5779 5782 5785 5788 5791 5794 5796 5798 5800 5803 5806 5809 5811 5814 5816 5819 5821 5823 5826 5829 5831 5834 5836 5839 5841 5843 5845 5846 5848 5849 5851 5853 5855 5856 5857 5858 5860 5862 5863 5864 5865 5865 5865
Wind_Speed
27 24 19 17 16 19 21 21 20 21 21 20 21 20 19 18 17 18 20 21 20 20 22 27 30 29 28 25 22 19 18 18 19 18 17 16 15 15 15 14 14 13 12 12 11 10 8 8 7 5 4 3 3 2 2 2 2 3 3 3 2 2 2
28 25 20 16 15 15 18 19 21 22 22 22 22 22 21 19 19 20 21 21 21 21 22 26 30 31 30 27 23 21 20 20 20 18 17 17 16 16 15 15 14 14 13 12 12 11 10 8 7 6 5 4 3 2 2 2 2 3 3 2 2 2 2
26 24 20 17 17 18 19 20 22 22 21 21 21 21 22 21 21 22 22 23 23 22 22 25 30 32 31 29 25 22 21 21 20 19 18 18 17 16 16 15 15 15 14 13 13 13 11 10 9 8 6 5 4 3 3 3 3 3 4 3 3 2 2
25 23 21 20 21 22 22 21 22 22 20 20 21 23 23 23 23 24 23 24 24 23 23 25 29 32 31 30 27 24 22 22 22 21 20 19 17 16 16 16 16 15 15 15 15 14 12 11 10 9 8 6 5 4 3 4 4 4 5 4 3 3 3
25 24 23 22 23 23 23 22 22 22 23 24 25 25 25 25 25 24 23 23 24 23 23 25 28 30 32 31 28 26 24 24 24 22 21 19 18 17 17 17 16 16 16 16 16 15 14 12 11 10 9 7 5 4 4 4 5 5 5 5 5 4 3
27 25 24 24 24 24 24 23 21 21 24 28 28 25 25 26 25 24 23 22 22 22 22 23 25 28 30 31 30 27 26 25 25 23 22 20 19 18 18 18 17 17 17 17 17 17 15 14 12 11 10 8 7 6 5 5 5 6 6 6 6 5 4
28 26 25 26 26 25 24 25 23 19 20 26 27 23 23 26 25 23 22 21 21 23 23 23 24 25 28 30 30 28 27 26 26 25 23 21 20 19 19 18 18 18 18 18 18 18 16 15 14 13 11 10 9 8 7 7 7 7 7 7 6 6 5
31 28 27 28 28 26 25 26 26 21 19 23 23 20 21 24 24 23 23 22 22 23 23 23 22 23 26 29 30 29 28 27 26 26 24 22 21 20 19 20 20 20 20 19 20 20 18 17 16 14 13 12 11 10 9 9 8 8 8 7 7 7 6
32 31 29 29 29 27 26 26 26 23 22 22 22 20 20 21 23 24 25 25 25 25 24 22 22 23 25 27 30 31 30 28 27 26 25 23 22 21 21 22 22 22 21 21 22 22 20 19 18 17 16 14 13 12 12 11 10 9 9 8 8 8 7
34 33 32 31 30 28 27 26 25 25 26 25 24 22 19 19 23 26 26 27 29 28 25 22 22 24 25 27 30 33 32 30 28 27 26 25 23 22 22 23 23 23 23 23 24 23 22 21 20 19 18 17 16 15 14 13 12 11 10 9 9 9 8
36 35 34 32 31 29 28 27 26 25 26 27 26 23 21 21 23 25 25 27 30 29 27 25 23 23 25 27 30 33 33 32 30 29 28 27 25 24 24 24 24 25 24 25 25 24 24 23 21 21 20 19 18 17 16 15 14 13 11 10 10 10 10
38 37 36 34 32 31 30 29 27 26 24 25 26 25 25 23 19 19 24 28 30 30 28 25 21 21 24 26 28 31 33 33 32 31 30 29 28 27 25 25 25 26 26 26 26 25 25 24 23 22 22 21 20 19 18 17 16 15 14 12 12 11 11
40 39 38 36 35 33 32 32 30 28 25 25 26 25 28 27 20 19 24 27 27 27 26 25 22 22 24 25 25 27 30 32 33 33 32 31 30 29 28 26 26 26 26 27 27 26 26 25 24 23 23 23 22 21 20 19 18 17 16 15 14 13 13
42 42 40 39 38 36 35 34 33 31 28 27 27 26 27 28 27 27 27 24 23 22 23 26 25 23 23 24 24 25 27 30 32 33 34 33 32 31 30 28 27 27 27 27 27 27 27 26 25 24 24 24 23 22 22 21 21 20 19 18 17 16 16
45 44 43 42 41 39 38 37 36 35 32 30 29 28 27 27 28 31 30 26 22 17 18 22 24 24 24 24 24 25 25 27 29 32 33 34 34 33 32 31 29 28 28 28 27 27 27 27 27 25 25 24 24 24 24 23 23 22 21 21 20 19 18
47 46 45 44 43 42 41 40 39 38 36 34 33 31 30 28 27 29 31 31 26 19 17 21 23 26 27 26 25 26 26 26 27 29 31 33 33 34 34 33 32 30 30 29 28 28 28 27 27 27 26 25 25 25 25 25 25 24 24 24 23 22 21
48 48 47 46 45 44 43 42 42 40 39 38 37 35 33 31 29 28 30 32 31 26 23 24 25 26 29 30 29 28 27 27 26 26 28 31 33 34 35 35 34 33 31 30 29 29 28 27 27 27 27 27 26 26 26 26 26 26 26 26 26 25 24
48 49 49 48 47 47 46 45 44 43 42 41 40 39 37 35 32 31 30 31 32 31 28 28 28 26 25 28 31 31 30 29 28 28 28 29 31 34 36 37 37 35 33 32 31 30 30 29 28 28 27 27 27 26 26 26 26 26 26 27 27 26 26
47 49 50 50 50 49 48 48 47 46 45 44 43 42 41 39 37 35 34 33 34 34 32 30 30 28 25 26 30 32 32 32 31 30 30 30 30 32 35 37 37 36 36 35 34 33 32 30 29 28 28 27 27 26 25 26 26 25 26 28 28 27 27
46 48 50 51 51 51 51 50 49 48 47 46 45 45 44 44 42 40 38 37 36 37 36 33 32 32 31 30 30 31 32 35 35 33 32 32 31 31 33 35 35 35 36 37 36 35 33 32 31 30 29 28 27 26 25 25 25 24 25 27 28 28 28
46 47 49 51 52 53 53 53 52 51 50 48 47 48 47 47 46 44 43 41 40 40 40 38 37 35 35 35 34 32 33 35 37 36 35 35 34 33 32 32 33 34 36 37 37 37 35 35 34 32 31 30 29 27 26 25 25 24 24 26 28 29 29
47 47 48 50 52 53 53 54 54 54 53 52 51 50 50 50 50 49 47 45 44 44 43 42 41 40 39 38 37 36 34 33 35 37 38 37 36 36 35 33 32 33 34 35 37 37 37 37 36 35 34 33 31 30 28 28 27 26 25 26 28 29 28
48 48 48 49 51 52 52 53 54 55 55 55 54 53 53 53 53 52 52 50 49 48 47 46 45 44 43 41 40 40 38 35 34 37 38 37 36 36 37 37 36 34 32 33 35 36 37 38 38 37 36 35 34 32 31 30 30 29 28 28 29 29 28
50 49 49 50 50 51 52 52 53 54 55 56 56 56 56 56 56 55 55 54 54 52 51 50 49 47 47 46 44 43 40 37 36 37 36 34 34 35 36 37 37 36 34 32 32 34 35 37 38 38 38 37 36 35 33 33 32 32 31 31 32 31 30
50 50 50 51 51 51 51 51 52 53 53 54 55 56 57 57 57 57 56 56 55 55 54 52 51 50 49 48 47 44 40 37 39 40 37 34 33 34 35 35 36 38 38 36 32 31 32 33 35 36 37 37 36 36 36 35 35 34 34 34 34 34 33
51 51 51 51 51 51 52 52 52 52 52 53 53 55 56 56 57 57 57 56 55 55 54 53 52 51 50 49 48 45 42 41 42 42 40 38 35 34 35 36 37 39 41 40 35 32 30 30 31 32 34 35 36 37 37 36 36 37 36 36 36 36 36
52 53 53 53 52 52 53 53 53 53 53 53 53 53 54 55 56 56 56 56 55 55 54 53 51 51 51 49 48 46 45 46 48 48 46 43 40 38 37 38 38 40 41 40 37 33 31 29 29 29 30 32 34 36 37 37 37 38 38 38 38 38 38
53 53 54 54 54 54 54 54 53 54 54 54 54 54 54 54 55 55 55 55 55 55 54 53 51 51 50 49 48 48 47 47 47 47 47 47 46 44 43 41 39 38 38 37 35 33 31 30 29 29 29 30 32 34 35 36 37 38 39 39 39 39 39
54 54 54 54 55 55 55 55 55 55 55 55 55 55 56 55 55 55 55 55 55 55 54 52 51 51 51 49 47 47 47 46 45 44 44 46 47 47 46 44 41 38 36 36 36 35 34 33 31 30 30 30 30 31 33 34 36 38 39 39 39 39 40
55 55 55 55 56 56 56 56 56 56 56 56 56 56 57 57 57 57 56 56 56 56 56 54 51 50 51 52 51 48 45 43 44 45 45 44 45 47 47 46 43 40 38 36 36 36 37 37 35 33 32 31 31 31 31 33 35 36 37 38 38 39 40
54 56 57 57 58 57 57 57 57 57 57 57 57 57 58 59 59 59 59 58 58 57 57 57 55 52 51 52 54 54 50 45 44 45 45 44 43 45 47 46 45 43 41 39 38 36 35 37 38 37 36 34 32 32 32 33 33 34 36 37 38 39 40
54 55 56 58 59 59 59 59 60 59 58 58 59 59 59 59 60 61 61 61 60 60 60 59 58 57 55 53 53 53 53 51 48 46 46 46 45 45 44 42 41 40 40 40 40 38 36 35 36 38 38 37 35 34 34 34 34 35 37 39 39 38 39
56 56 56 58 59 60 61 61 62 62 61 60 60 60 60 60 60 61 63 63 63 63 62 62 61 60 59 57 56 54 53 52 50 47 46 45 45 45 44 44 43 42 40 40 40 40 39 37 35 35 36 37 38 38 37 37 37 39 41 41 39 39 40
58 59 59 59 60 61 62 62 63 64 64 63 63 63 63 62 61 62 63 64 65 65 65 64 64 63 61 60 60 59 57 55 54 51 49 47 45 43 41 41 42 40 40 41 42 42 41 40 38 36 35 36 38 38 38 39 41 42 44 42 40 39 41
59 59 60 61 62 63 63 64 64 65 66 66 66 65 65 65 64 63 63 64 65 67 67 67 66 66 65 63 62 61 61 60 59 57 55 53 52 48 44 42 40 37 37 39 40 41 43 42 40 39 38 37 37 38 39 40 40 40 40 40 41 41 40
55 57 58 60 63 65 66 66 66 66 67 68 69 69 68 67 67 66 66 65 66 67 68 69 69 68 68 67 65 64 63 63 62 61 60 58 57 55 52 50 47 44 41 40 38 39 41 41 40 40 39 38 38 39 40 40 39 38 38 40 42 44 43
49 51 54 56 59 63 66 68 69 69 69 69 70 70 71 70 70 69 69 68 68 68 68 69 70 71 70 70 69 67 66 65 64 64 63 61 60 59 57 55 53 50 48 46 42 39 39 39 39 41 41 39 38 40 42 42 40 39 40 40 42 45 46
44 46 48 51 54 57 61 65 68 70 72 72 72 72 73 73 72 72 72 71 71 70 70 70 70 71 72 72 72 71 69 68 67 66 65 64 63 62 60 58 56 53 51 49 46 43 40 38 37 39 41 42 41 40 42 43 42 41 41 40 40 43 46
Wind_Direction
242 246 245 231 217 214 216 222 229 231 226 216 211 210 206 202 205 208 206 205 205 208 210 207 205 205 207 210 210 206 204 210 215 218 219 218 216 218 223 222 218 211 203 199 196 195 194 193 201 210 207 201 194 189 198 185 164 166 170 161 154 149 144
239 248 253 249 245 234 223 224 228 229 227 219 213 210 207 205 208 211 208 206 207 208 208 208 205 205 208 210 209 205 202 207 213 214 215 217 216 217 221 222 220 215 206 199 198 200 199 198 201 206 208 207 206 210 217 210 181 171 178 179 179 172 161
239 246 248 247 250 244 232 227 227 228 228 223 218 215 212 209 210 213 211 208 208 208 207 209 208 207 208 209 209 207 203 205 211 213 212 215 216 217 220 221 220 218 211 203 202 203 203 203 203 205 208 211 215 220 221 217 200 183 181 185 197 196 178
237 244 243 238 236 234 232 227 226 229 230 226 222 219 216 213 213 215 214 210 208 208 207 209 210 209 208 210 210 209 205 205 210 213 212 212 214 217 221 222 220 218 215 209 206 207 207 209 210 209 210 215 222 226 222 217 206 196 189 182 190 206 201
234 241 244 241 236 233 233 231 228 228 228 225 222 220 216 215 217 218 217 215 211 208 209 211 213 212 210 210 212 210 208 207 210 213 212 211 213 217 221 223 222 220 218 215 211 210 210 213 216 216 214 219 228 233 226 220 211 204 198 185 183 198 216
232 237 243 245 244 240 238 241 236 227 226 223 215 214 217 216 217 218 219 219 214 210 212 213 216 217 214 212 213 212 211 210 213 215 213 211 212 216 220 223 223 223 221 218 217 215 214 216 219 220 220 222 230 234 230 225 218 211 206 196 188 192 208
231 234 240 244 247 246 245 250 247 236 237 229 211 204 215 219 218 219 220 220 215 212 213 214 217 220 218 217 216 216 215 214 215 217 216 213 212 215 220 222 224 224 222 221 221 220 218 218 220 221 223 225 229 231 230 227 224 218 213 207 202 199 202
230 232 236 241 246 246 245 248 247 241 244 242 226 215 219 219 219 222 223 222 220 215 211 211 216 220 222 221 220 219 219 218 219 220 220 217 214 215 218 222 225 225 222 222 223 222 220 219 220 222 223 226 229 230 230 229 227 224 220 215 212 212 211
229 232 235 239 244 246 244 243 243 238 236 242 244 239 230 223 221 222 222 222 222 216 208 207 214 219 221 223 222 222 221 220 221 224 225 223 219 216 217 222 225 225 224 223 224 223 223 221 221 222 223 226 228 230 231 231 231 229 226 224 220 220 221
229 232 234 237 242 244 244 241 239 237 235 238 244 244 242 238 231 227 226 225 221 212 202 204 213 217 219 222 223 223 223 222 222 224 227 229 226 221 218 220 225 226 226 226 226 225 225 225 223 222 224 225 228 230 231 232 233 232 230 230 227 225 227
228 232 233 234 238 241 243 242 238 236 235 236 239 240 238 235 230 230 233 232 225 212 200 202 213 217 218 221 223 224 224 223 224 225 227 231 232 230 224 222 224 226 227 228 229 228 227 227 226 224 225 226 228 231 232 233 234 233 231 231 231 231 230
226 229 230 231 234 237 240 241 240 238 235 235 237 237 234 230 230 236 234 230 227 219 207 206 215 222 222 223 224 225 226 225 225 226 228 230 233 234 232 228 227 228 228 229 231 230 230 230 228 227 228 229 230 232 234 235 236 235 233 232 233 234 232
224 226 227 228 230 233 236 239 240 239 237 237 236 237 237 235 238 242 234 229 230 227 219 217 221 225 226 229 229 227 227 228 226 227 229 230 232 235 236 234 233 232 231 231 231 233 234 233 232 230 231 232 233 234 236 237 238 238 237 234 234 235 235
222 224 225 226 227 229 232 235 237 238 239 240 238 238 240 240 241 240 235 239 243 237 230 230 230 228 230 233 234 232 232 231 230 229 230 231 232 235 237 237 237 236 236 235 234 235 236 237 236 234 234 235 235 236 238 240 240 241 240 238 236 236 237
221 222 223 223 224 226 228 231 234 236 238 239 240 240 241 241 243 241 239 247 254 248 240 239 237 237 238 239 239 238 237 236 235 233 234 234 234 235 238 240 239 239 240 240 239 238 239 240 240 239 238 237 237 238 239 241 242 242 242 242 239 238 238
220 222 222 223 224 225 226 228 231 234 236 237 238 240 241 240 241 242 243 248 252 251 244 240 239 238 237 237 238 239 239 241 240 239 238 238 237 237 238 240 241 241 241 242 243 243 242 243 243 244 243 241 241 240 240 241 242 243 244 244 242 240 240
220 222 223 224 224 225 226 227 229 232 235 235 235 237 240 241 240 242 244 247 248 247 242 240 242 242 237 233 233 233 235 238 240 240 241 240 239 239 239 239 241 242 242 243 244 246 246 245 245 245 246 246 245 245 244 244 244 244 245 246 245 244 242
221 222 223 224 225 226 226 227 229 231 234 235 235 235 238 240 242 243 245 247 248 248 244 240 242 247 247 241 236 232 231 233 235 236 238 239 239 240 240 240 240 241 242 243 244 246 247 247 248 248 249 249 249 250 250 250 249 248 248 249 249 247 246
222 222 223 224 226 227 227 228 229 230 232 234 236 236 237 238 240 242 245 247 249 250 249 247 245 247 248 247 244 240 234 231 232 232 233 234 237 239 240 240 240 241 242 243 243 244 246 248 249 250 251 252 253 254 254 255 256 255 254 255 254 253 251
223 223 224 225 226 227 227 228 229 230 232 234 235 237 238 238 239 240 242 246 250 251 252 252 249 246 244 244 249 251 245 237 232 231 232 233 234 237 239 239 239 240 241 243 244 244 245 247 248 249 250 252 254 255 256 257 258 258 259 260 260 259 257
226 225 225 225 226 227 227 228 230 231 232 234 235 236 238 239 240 240 241 243 247 250 253 253 252 250 248 246 248 255 257 249 240 235 234 234 234 237 239 239 239 239 238 240 242 244 245 246 247 247 248 249 250 251 252 255 256 256 257 260 262 262 261
229 227 226 226 227 228 229 229 230 232 233 235 236 237 238 239 240 241 241 242 244 248 251 252 252 252 252 251 252 255 257 256 253 248 242 238 239 241 240 240 240 240 239 238 239 241 242 244 245 246 247 247 248 248 248 250 252 252 252 255 259 262 263
233 231 229 228 228 229 230 230 231 232 234 235 237 238 238 239 240 241 242 243 245 248 250 251 252 252 252 253 254 254 252 255 261 260 252 247 246 246 244 243 240 240 241 240 239 239 241 242 244 245 246 246 247 248 248 249 251 251 250 251 253 256 259
237 235 233 231 230 230 231 232 232 233 234 235 236 237 238 239 240 241 242 243 245 247 250 251 251 252 253 254 254 255 256 258 262 263 259 254 252 250 250 249 245 243 243 243 242 240 240 242 244 245 246 247 248 249 249 250 251 252 252 253 254 254 254
239 238 237 235 233 232 232 233 233 233 234 235 236 236 237 239 240 241 242 243 245 246 248 250 251 251 253 255 256 257 258 259 260 261 259 256 255 253 251 250 246 244 244 245 246 245 242 242 243 245 246 247 248 249 249 250 252 252 253 255 256 257 256
242 241 240 238 236 235 235 233 233 234 235 235 236 236 236 237 239 240 241 242 243 245 246 248 250 251 252 254 255 256 256 255 257 259 257 254 253 253 251 248 246 245 243 242 245 247 244 241 242 243 244 245 246 247 248 249 250 251 252 253 255 257 258
243 243 242 240 239 239 237 235 234 234 234 235 236 236 236 236 237 238 239 240 242 243 244 245 247 248 250 252 253 254 253 254 256 259 257 255 254 253 253 251 247 247 247 245 244 246 246 244 243 242 242 243 244 245 246 246 248 250 250 251 252 255 257
245 245 244 243 242 241 240 238 237 235 234 234 235 236 236 237 237 237 237 237 239 240 241 243 244 244 246 249 251 251 251 253 256 258 258 258 256 255 256 257 253 252 255 253 247 247 249 248 245 242 241 242 243 245 245 245 246 247 248 250 251 253 256
246 246 246 245 244 244 243 242 241 238 236 235 235 236 237 237 237 237 237 237 237 237 238 240 241 240 240 242 245 248 249 249 252 255 258 259 258 257 259 261 259 258 260 257 250 248 249 248 247 246 244 244 244 246 247 247 246 247 248 249 250 252 255
247 247 247 247 246 245 245 245 244 242 240 237 236 235 236 237 237 237 237 237 237 237 237 238 239 239 238 239 241 244 246 246 247 251 255 256 257 258 260 263 263 262 262 260 256 253 249 247 248 249 248 248 248 248 249 249 248 248 249 250 250 251 253
247 247 247 247 246 246 246 246 246 245 244 241 239 237 236 237 238 238 238 237 237 237 237 237 238 239 239 239 240 242 244 244 245 249 251 252 254 257 259 261 263 263 262 261 261 258 252 247 247 248 249 250 252 252 252 252 251 250 250 250 250 251 252
248 248 248 247 247 246 247 247 247 246 246 245 242 240 238 237 237 238 239 239 238 237 238 238 238 238 239 240 241 241 243 243 243 245 247 249 252 255 256 258 260 261 261 261 260 259 256 250 248 249 249 249 250 252 252 252 252 251 251 250 251 252 254
252 250 249 249 247 246 246 247 247 247 247 246 245 244 242 240 238 237 238 239 239 238 238 238 238 238 238 239 241 241 241 242 242 243 244 246 249 250 252 256 259 259 259 261 261 260 259 256 253 252 251 249 248 250 251 251 252 252 251 250 252 254 255
253 253 252 251 250 248 247 246 247 247 247 247 247 246 245 243 242 239 238 238 239 240 239 239 239 239 238 239 240 241 241 241 242 242 243 245 247 248 249 252 255 256 257 259 261 260 259 258 257 257 255 252 250 251 252 252 252 254 254 253 254 256 256
253 254 254 253 252 251 249 247 247 247 247 247 247 247 246 246 245 243 241 240 239 240 240 240 240 240 239 239 239 240 241 242 243 243 243 244 246 248 248 248 251 254 255 257 260 259 256 255 256 256 256 256 254 254 254 255 256 259 260 258 256 257 257
253 254 254 254 254 253 252 250 248 247 247 247 247 247 247 246 246 245 244 243 241 240 240 240 240 241 241 240 240 240 241 242 243 244 244 244 246 248 249 249 251 253 254 254 258 259 257 255 256 256 256 256 256 256 257 259 262 264 263 259 256 257 258
254 255 255 256 256 255 254 253 252 250 248 248 248 247 247 247 247 247 246 245 244 243 241 240 240 241 242 242 241 240 241 242 243 244 245 245 246 247 248 249 251 252 252 253 255 259 259 258 258 257 257 257 258 258 259 261 265 266 264 262 259 257 257
255 256 257 258 259 259 258 256 255 253 251 250 249 248 247 247 247 247 247 246 245 244 243 242 241 241 241 242 243 242 241 241 242 244 245 245 246 247 248 249 250 251 250 251 252 255 258 259 259 259 259 259 259 259 259 261 263 264 264 264 263 259 255